{"data":{"norad_id":61564,"epoch":"2026-05-25T04:22:18.015744Z","epoch_age_seconds":49478,"freshness":"FRESH","line1":"1 61564U 24185N   26145.18215296  .00000154  00000+0  19622-3 0  9996","line2":"2 61564  88.9815  63.5350 0004894 279.1933  80.8669 13.58032292 90342","mean_motion":13.58032292,"eccentricity":0.0004894,"inclination_deg":88.9815,"raan_deg":63.535,"arg_perigee_deg":279.1933,"mean_anomaly_deg":80.8669,"bstar":0.00019622,"rev_number":9034,"period_min":106.03577017151,"perigee_km":1039.219977527,"apogee_km":1046.4836413737,"semimajor_km":7420.9888094504,"source":"CELESTRAK","updated_at":"2026-05-25T13:38:02.416013Z"}}